Weather History for CYMX - November, 2014

Change the Weather History Date:

Wednesday, November 5, 2014

  Actual Average Record
Temperature  
Mean Temperature 48 °F -  
Max Temperature 53 °F 42 °F - (-1)
Min Temperature 42 °F 29 °F - (-1)
Degree Days  
Heating Degree Days 18    
Moisture  
Dew Point 39 °F    
Average Humidity 70    
Maximum Humidity 100    
Minimum Humidity 50    
Precipitation  
Precipitation 0.00 in - - ()
Sea Level Pressure  
Sea Level Pressure 29.90 in    
Wind  
Wind Speed 10 mph ()    
Max Wind Speed 18 mph    
Max Gust Speed 33 mph    
Visibility 8.0 miles    
Events Rain    
Averages and records for this station are not official NWS values.
T = Trace of Precipitation, MM = Missing Value Source: Averaged Metar Reports

Daily Weather History Graph

Daily Weather History Graph

Search for Another Location

Airport or City:

Trip Planner

Search our weather history database for the weather conditions in past years. The results will help you decide how hot, cold, wet, or windy it might be!

Date:

Astronomy

Nov. 05, 2014 Rise Set
Actual Time 6:41 AM EST 4:37 PM EST
Civil Twilight 6:10 AM EST 5:08 PM EST
Nautical Twilight 5:34 AM EST 5:43 PM EST
Astronomical Twilight 5:00 AM EST 6:18 PM EST
Moon 4:05 PM EST (11/5) 4:58 AM EST (11/5)
Length of Visible Light 10h 58m
Length of Day
9h 55m
Waxing Gibbous, 98% of the Moon is Illuminated
Nov 5
Waxing Gibbous
Nov 6
Full
Nov 14
Last Quarter
Nov 22
New
Nov 29
First Quarter

Hourly Weather History & Observations

Time (EST) Temp. Windchill Dew Point Humidity Pressure Visibility Wind Dir Wind Speed Gust Speed Precip Events Conditions
12:00 AM 42.8 °F - 42.8 °F 100% 29.81 in 6.0 mi Variable 2.3 mph - N/A Rain Light Rain
1:00 AM 50.0 °F - 48.2 °F 94% 29.79 in 6.0 mi SSW 8.1 mph - N/A Rain Light Rain
1:41 AM 51.8 °F - 50.0 °F 94% 29.79 in 4.0 mi SW 10.4 mph - N/A Rain Light Rain
2:00 AM 51.8 °F - 50.0 °F 94% 29.78 in 4.0 mi SW 10.4 mph 17.3 mph N/A   Unknown
3:00 AM 51.8 °F - 50.0 °F 94% 29.77 in 6.0 mi SW 11.5 mph 17.3 mph N/A Rain Light Rain
4:00 AM 53.6 °F - 50.0 °F 88% 29.76 in 15.0 mi SW 13.8 mph 21.9 mph N/A Rain Light Rain Showers
5:00 AM 53.6 °F - 48.2 °F 82% 29.78 in 15.0 mi WSW 10.4 mph 24.2 mph N/A Rain Light Rain Showers
5:47 AM 51.8 °F - 44.6 °F 76% 29.81 in 25.0 mi WSW 15.0 mph 25.3 mph N/A   Overcast
6:00 AM 51.8 °F - 42.8 °F 71% 29.81 in 25.0 mi WSW 15.0 mph 26.5 mph N/A   Mostly Cloudy
7:00 AM 48.2 °F - 41.0 °F 76% 29.85 in 25.0 mi WSW 13.8 mph 25.3 mph N/A   Scattered Clouds
8:00 AM 46.4 °F 40.4 °F 39.2 °F 76% 29.88 in 25.0 mi West 13.8 mph 31.1 mph N/A Rain Light Rain Showers
8:35 AM 46.4 °F 40.4 °F 37.4 °F 71% 29.91 in 45.0 mi West 13.8 mph 29.9 mph N/A   Mostly Cloudy
9:00 AM 48.2 °F - 37.4 °F 66% 29.91 in 45.0 mi WSW 13.8 mph 25.3 mph N/A   Mostly Cloudy
9:14 AM 48.2 °F - 35.6 °F 62% 29.92 in 45.0 mi WSW 18.4 mph 33.4 mph N/A Rain Light Rain Showers
10:00 AM 48.2 °F - 35.6 °F 62% 29.93 in 45.0 mi West 13.8 mph 31.1 mph N/A   Mostly Cloudy
11:00 AM 48.2 °F - 35.6 °F 62% 29.93 in 45.0 mi SW 13.8 mph 21.9 mph N/A   Overcast
12:00 PM 50.0 °F - 35.6 °F 58% 29.92 in 45.0 mi WSW 8.1 mph 20.7 mph N/A   Mostly Cloudy
12:50 PM 50.0 °F - 33.8 °F 54% 29.91 in 45.0 mi SW 11.5 mph 27.6 mph N/A Rain Light Rain Showers
1:00 PM 50.0 °F - 35.6 °F 58% 29.91 in 45.0 mi WSW 15.0 mph 26.5 mph N/A Rain Light Rain Showers
2:00 PM 51.8 °F - 33.8 °F 50% 29.91 in 25.0 mi West 17.3 mph 32.2 mph N/A   Mostly Cloudy
2:20 PM 50.0 °F - 33.8 °F 54% 29.91 in 25.0 mi WSW 17.3 mph 27.6 mph N/A   Mostly Cloudy
3:00 PM 50.0 °F - 35.6 °F 58% 29.94 in 25.0 mi WSW 9.2 mph - N/A   Mostly Cloudy
4:00 PM 50.0 °F - 33.8 °F 54% 29.96 in 25.0 mi WSW 10.4 mph 18.4 mph N/A   Scattered Clouds
5:00 PM 46.4 °F 40.7 °F 32.0 °F 57% 29.98 in 25.0 mi West 12.7 mph 19.6 mph N/A   Scattered Clouds
6:00 PM 46.4 °F 42.9 °F 33.8 °F 62% 30.01 in 25.0 mi WSW 6.9 mph - N/A   Mostly Cloudy
7:00 PM 46.4 °F 42.9 °F 33.8 °F 62% 30.03 in 25.0 mi WSW 6.9 mph - N/A   Mostly Cloudy
8:00 PM 46.4 °F 42.9 °F 33.8 °F 62% 30.04 in 25.0 mi WSW 6.9 mph 17.3 mph N/A   Mostly Cloudy
9:00 PM 46.4 °F 42.4 °F 33.8 °F 62% 30.05 in 25.0 mi WSW 8.1 mph - N/A   Overcast
10:00 PM 44.6 °F 39.7 °F 32.0 °F 61% 30.05 in 25.0 mi WSW 9.2 mph - N/A   Overcast
11:00 PM 44.6 °F 40.7 °F 33.8 °F 66% 30.06 in 25.0 mi WSW 6.9 mph - N/A   Overcast